Weather in Melovoye

Russia / Oryol Oblast     53°01′43″N   35°26′12″E
temp.,
°C
wind,
m/s
gust,
m/s
humid.,
%
clouds,
%
prec.,
mm/h
press.,
hPa
HPBL,
m
6 march, sat
sat600:00−8w3390100 0.0 101625
03:00−10w349191 0.0 101738
06:00−11wnw349619 0.0 101757
09:00−7nnw4109441 0.1 1019567
12:00−5nnw578098 0.0 1019755
15:00−4nw367750 0.0 1019993
18:00−7w478235 0.1 1019147
21:00−10w458225 0.1 102081
7 march, sun
sun700:00−11wsw48900 0.0 1019129
03:00−10sw614880 0.0 1016277
06:00−8sw8168467 0.0 1013526
09:00−6sw10188483 0.0 1009767
12:00−3wsw121993100 0.6 10041173
15:00−1wsw111893100 1.5 10021368
18:00−4wnw61277100 1.9 1002819
21:00−9wsw458270 1.9 100351
8 march, mon
mon800:00−6sw51292100 0.0 1002360
03:00−7wsw6159290 0.0 1000507
06:00−8wnw9167566 0.1 10001084
09:00−10wnw9158142 0.1 1004879
12:00−8wnw8118589 0.0 10061005
15:00−6wnw7107793 0.1 10081095
18:00−8w410831 0.0 1010217
21:00−10w479126 0.0 1012130
9 march, tue
tue900:00−11w479635 0.0 1013121
03:00−10nw359667 0.1 101496
06:00−13nw349698 0.1 101682
09:00−13nw489585 0.1 1018323
12:00−10nw578790 0.0 1019637
15:00−9nw477995 0.0 1020881
18:00−11w338522 0.0 102031
21:00−13w348619 0.0 102241
10 march, wed
wed1000:00−14wsw479225 0.0 1021105
03:00−12wsw6118855 0.0 1020246
06:00−11wsw6138780 0.0 1019282
09:00−9w6138487 0.0 1019397
12:00−5w6118198 0.0 1020708
15:00−4w577999 0.0 10201054
18:00−8ne4593100 0.2 1020127
21:00−11ene5995100 0.5 1022295